Regional Weather Roundup
Issued by NWS

Home | Current Version | Previous Version | Graphics & Text | Print | Product List | Glossary On
Versions: 1 2 3 4 5 6 7 8 9 10 11 12 13 14 15 16 17 18 19 20 21 22 23 24 25 26 27 28 29 30 31 32 33 34 35 36 37 38 39 40 41 42 43 44 45 46 47 48 49 50
000
ASUS43 KLOT 230400
RWRIL

ILLINOIS REGIONAL WEATHER ROUNDUP
NATIONAL WEATHER SERVICE CHICAGO/ROMEOVILLE IL
1100 PM CDT MON SEP 22 2014

NOTE: "FAIR" INDICATES FEW OR NO CLOUDS BELOW 12,000 FEET WITH NO
SIGNIFICANT WEATHER AND/OR OBSTRUCTIONS TO VISIBILITY.

* THESE STATIONS ARE NOT UNDER NWS QUALITY CONTROL. THEY ALSO MAY NOT
  REPORT WEATHER SUCH AS PRECIPITATION OR FOG.

ILZ001-002-007-009-015-016-024-230500-
NORTHWEST ILLINOIS

CITY           SKY/WX    TMP DP  RH WIND       PRES   REMARKS
MOLINE         CLEAR     48  46  93 CALM      30.26S
STERLING*      CLEAR     46  39  76 SE3       30.27S
$$

ILZ003-004-008-010-011-017-018-230500-
NORTH CENTRAL ILLINOIS

CITY           SKY/WX    TMP DP  RH WIND       PRES   REMARKS
ROCKFORD       CLEAR     50  46  86 S3        30.29R
FREEPORT*      CLEAR     51  45  79 SW3       30.28S
ROCHELLE*      CLEAR     45  43  93 CALM      30.28S
$$

ILZ005-006-012>014-019>023-230500-
NORTHEAST ILLINOIS

CITY           SKY/WX    TMP DP  RH WIND       PRES   REMARKS
CHICAGO-OHARE  CLEAR     55  46  71 S7        30.27R
CHICAGO-MIDWAY CLEAR     57  45  64 S5        30.27R
AURORA         CLEAR     46  43  89 CALM      30.28R
LANSING*       CLEAR     50  44  81 CALM      30.28S
WAUKEGAN       CLEAR     52  46  80 SW5       30.25R
DUPAGE AIRPORT CLEAR     50  46  86 CALM      30.27R
WHEELING       CLEAR     53  46  77 SE3       30.28R
NORTHERLY ISL    N/A     57  42  57 S3          N/A
$$

LMZ740>746-230500-
SOUTHERN LAKE MICHIGAN

STATION/POSITION SKY/WX   TEMP    WIND        PRES    VSBY  WAVE
                          AIR SEA DIR/SP/G                  HT/PER
                          (F)     (DEG/KT/KT) (MB)    (MI)  (FT/S)
SOUTHERN BUOY              61 62  190/ 12/ 14 1024.4R         1/ 3
WAUKEGAN HARBOR            57     230/  6/  9   N/A
BURNHAM HARBOR             57     190/  3/  4   N/A
CALUMET HARBOR             56     190/  4/  5 1023.7R
MICHIGAN CITY 6N           57 63  150/ 10/ 12   N/A           1/ 4
ST. JOSEPH                 58 65  160/  8/ 12   N/A           1/ 6
$$

ILZ025>027-034>036-040-047-049-050-058-095>099-230500-
WEST-CENTRAL ILLINOIS

CITY           SKY/WX    TMP DP  RH WIND       PRES   REMARKS
QUINCY         CLEAR     57  46  66 SE3       30.26S
GALESBURG*     CLEAR    N/A N/A N/A CALM      30.26F
MACOMB*        CLEAR     46  45  93 CALM      30.29R
$$

ILZ028>032-037-038-041>044-048-051>054-059>061-230500-
CENTRAL ILLINOIS

CITY           SKY/WX    TMP DP  RH WIND       PRES   REMARKS
DECATUR        CLEAR     52  46  80 CALM      30.28S
PEORIA         CLEAR     53  47  79 CALM      30.28R
SPRINGFIELD    CLEAR     50  46  86 CALM      30.28R
TAYLORVILLE    NOT AVBL
$$

ILZ033-039-045-046-055>057-062-063-230500-
EAST-CENTRAL ILLINOIS

CITY           SKY/WX    TMP DP  RH WIND       PRES   REMARKS
CHAMPAIGN      CLEAR     51  45  79 NE5       30.28R
MATTOON        CLEAR     50  47  89 CALM      30.27R
$$

ILZ079-100>102-230500-
SOUTHWEST ILLINOIS

CITY           SKY/WX    TMP DP  RH WIND       PRES   REMARKS
BELLEVILLE     CLEAR     54  52  94 CALM      30.26S FOG
CAHOKIA*       CLEAR     50  49  96 SE5       30.26S
SPARTA*        CLEAR     54  49  83 CALM      30.27S
$$

ILZ064>066-069>071-074>076-080>082-084>086-088>090-092>094-230500-
SOUTH-CENTRAL ILLINOIS

CITY           SKY/WX    TMP DP  RH WIND       PRES   REMARKS
CARBONDALE     CLEAR     48  46  93 CALM      30.26R FOG
MT. VERNON     CLEAR     46  41  81 CALM      30.28R
$$

ILZ067-068-072-073-078-083-087-091-230500-
SOUTHEAST ILLINOIS

CITY           SKY/WX    TMP DP  RH WIND       PRES   REMARKS
LAWRENCEVILLE  CLEAR     50  48  93 CALM      30.27R
ROBINSON*      CLEAR     47  47  98 CALM      30.28R FOG
$$

ABBREVIATIONS USED IN REMARKS
   TC - TEMPERATURE IN CELSIUS
  WCI - WIND CHILL INDEX
   HX - HEAT INDEX
  VSB - VISIBILITY
$$




USA.gov is the U.S. government's official web portal to all federal, state and local government web resources and services.